Hourly Weather Bolshie Tigany

Today, 20 June, Sunday

Time Temperature Precipitation Wind Pressure Humidity
00:00 +18°C° 0 mm 4 mps 754 mmHg 88%
01:00 +18°C° 0 mm 4 mps 754 mmHg 90%
02:00 +17°C° 0 mm 4 mps 754 mmHg 91%
03:00 +17°C° 0 mm 3 mps 754 mmHg 93%
04:00 +18°C° 0 mm 3 mps 754 mmHg 89%
05:00 +19°C° 0 mm 3 mps 754 mmHg 85%
06:00 +21°C° 0 mm 3 mps 755 mmHg 82%
07:00 +22°C° 0 mm 3 mps 755 mmHg 77%
08:00 +24°C° 0 mm 3 mps 755 mmHg 72%
09:00 +26°C° 0 mm 4 mps 755 mmHg 69%
10:00 +27°C° 0 mm 4 mps 755 mmHg 66%
11:00 +27°C° 0 mm 4 mps 755 mmHg 63%
12:00 +28°C° 0 mm 4 mps 755 mmHg 60%
13:00 +29°C° 0 mm 3 mps 755 mmHg 60%
14:00 +29°C° 0 mm 3 mps 755 mmHg 59%
15:00 +29°C° 0 mm 3 mps 755 mmHg 59%
16:00 +29°C° 0.1 mm 2 mps 754 mmHg 63%
17:00 +28°C° 0.1 mm 2 mps 754 mmHg 67%
18:00 +28°C° 0.1 mm 1 mps 754 mmHg 72%
19:00 +26°C° 0.1 mm 1 mps 754 mmHg 75%
20:00 +25°C° 0.1 mm 1 mps 754 mmHg 79%
21:00 +23°C° 0.1 mm 1 mps 755 mmHg 82%
22:00 +21°C° 0.1 mm 2 mps 755 mmHg 84%
23:00 +21°C° 0.1 mm 2 mps 755 mmHg 85%

Tomorrow, 21 June, Monday

Time Temperature Precipitation Wind Pressure Humidity
00:00 +20°C° 0.1 mm 2 mps 755 mmHg 86%
01:00 +20°C° 0 mm 2 mps 755 mmHg 87%
02:00 +20°C° 0 mm 2 mps 755 mmHg 88%
03:00 +20°C° 0 mm 2 mps 755 mmHg 89%
04:00 +21°C° 0.3 mm 2 mps 755 mmHg 89%
05:00 +21°C° 0.3 mm 2 mps 755 mmHg 88%
06:00 +23°C° 0.3 mm 2 mps 756 mmHg 88%
07:00 +24°C° 0.2 mm 3 mps 755 mmHg 83%
08:00 +26°C° 0.2 mm 3 mps 755 mmHg 77%
09:00 +27°C° 0.2 mm 3 mps 755 mmHg 72%
10:00 +28°C° 0.3 mm 3 mps 755 mmHg 68%
11:00 +28°C° 0.3 mm 3 mps 755 mmHg 65%
12:00 +29°C° 0.3 mm 4 mps 755 mmHg 61%
13:00 +29°C° 0.1 mm 3 mps 755 mmHg 59%
14:00 +29°C° 0.1 mm 3 mps 755 mmHg 57%
15:00 +30°C° 0.1 mm 3 mps 755 mmHg 55%
16:00 +29°C° 0 mm 3 mps 755 mmHg 60%
17:00 +29°C° 0 mm 2 mps 755 mmHg 65%
18:00 +28°C° 0 mm 2 mps 754 mmHg 70%
19:00 +27°C° 0 mm 2 mps 755 mmHg 72%
20:00 +25°C° 0 mm 2 mps 755 mmHg 75%
21:00 +24°C° 0 mm 3 mps 755 mmHg 78%
22:00 +24°C° 0 mm 3 mps 755 mmHg 78%
23:00 +22°C° 0 mm 3 mps 755 mmHg 78%

Day after tomorrow, 22 June, Tuesday

Time Temperature Precipitation Wind Pressure Humidity
00:00 +22°C° 0 mm 3 mps 755 mmHg 78%
01:00 +23°C° 0 mm 2 mps 755 mmHg 80%
02:00 +21°C° 0 mm 2 mps 755 mmHg 82%
03:00 +21°C° 0 mm 2 mps 755 mmHg 84%
04:00 +23°C° 0 mm 2 mps 755 mmHg 84%
05:00 +24°C° 0 mm 2 mps 755 mmHg 83%
06:00 +25°C° 0 mm 3 mps 756 mmHg 82%
07:00 +26°C° 0 mm 3 mps 756 mmHg 78%
08:00 +27°C° 0 mm 3 mps 756 mmHg 73%
09:00 +28°C° 0 mm 3 mps 756 mmHg 69%
10:00 +29°C° 0.3 mm 3 mps 756 mmHg 66%
11:00 +29°C° 0.3 mm 3 mps 756 mmHg 63%
12:00 +30°C° 0.3 mm 3 mps 756 mmHg 60%
13:00 +30°C° 0.1 mm 3 mps 756 mmHg 59%
14:00 +31°C° 0.1 mm 3 mps 756 mmHg 57%
15:00 +31°C° 0.1 mm 3 mps 755 mmHg 56%
16:00 +30°C° 0 mm 3 mps 755 mmHg 61%
17:00 +30°C° 0 mm 3 mps 755 mmHg 65%
18:00 +29°C° 0 mm 3 mps 754 mmHg 70%
19:00 +27°C° 0 mm 3 mps 755 mmHg 73%
20:00 +26°C° 0 mm 3 mps 755 mmHg 75%
21:00 +25°C° 0 mm 3 mps 755 mmHg 77%
22:00 +24°C° 0 mm 3 mps 755 mmHg 78%
23:00 +24°C° 0 mm 3 mps 755 mmHg 78%

23 June, Wednesday

Time Temperature Precipitation Wind Pressure Humidity
00:00 +24°C° 0 mm 2 mps 755 mmHg 79%
01:00 +23°C° 0 mm 2 mps 755 mmHg 80%
02:00 +23°C° 0 mm 2 mps 755 mmHg 82%
03:00 +23°C° 0 mm 2 mps 755 mmHg 84%
04:00 +24°C° 0 mm 2 mps 755 mmHg 83%
05:00 +24°C° 0 mm 3 mps 755 mmHg 82%
06:00 +25°C° 0 mm 3 mps 755 mmHg 81%
07:00 +26°C° 0 mm 3 mps 755 mmHg 76%
08:00 +27°C° 0 mm 3 mps 755 mmHg 72%
09:00 +28°C° 0 mm 3 mps 755 mmHg 67%
10:00 +29°C° 0 mm 3 mps 755 mmHg 63%
11:00 +30°C° 0 mm 3 mps 755 mmHg 59%
12:00 +31°C° 0 mm 3 mps 755 mmHg 55%
13:00 +31°C° 0 mm 3 mps 755 mmHg 53%
14:00 +31°C° 0 mm 3 mps 755 mmHg 52%
15:00 +31°C° 0 mm 3 mps 755 mmHg 51%
16:00 +31°C° 0 mm 2 mps 755 mmHg 56%
17:00 +30°C° 0 mm 2 mps 755 mmHg 62%
18:00 +29°C° 0 mm 2 mps 754 mmHg 68%
19:00 +28°C° 0 mm 2 mps 754 mmHg 68%
20:00 +27°C° 0 mm 2 mps 754 mmHg 69%
21:00 +25°C° 0 mm 2 mps 754 mmHg 70%
22:00 +24°C° 0 mm 2 mps 754 mmHg 72%
23:00 +24°C° 0 mm 2 mps 754 mmHg 74%

24 June, Thursday

Time Temperature Precipitation Wind Pressure Humidity
00:00 +23°C° 0 mm 2 mps 754 mmHg 76%
01:00 +23°C° 0.1 mm 1 mps 754 mmHg 79%
02:00 +22°C° 0.1 mm 1 mps 754 mmHg 81%
03:00 +22°C° 0.1 mm 1 mps 754 mmHg 84%
04:00 +23°C° 0 mm 1 mps 754 mmHg 82%
05:00 +24°C° 0 mm 2 mps 754 mmHg 80%
06:00 +25°C° 0 mm 2 mps 754 mmHg 79%
07:00 +26°C° 0 mm 2 mps 754 mmHg 75%
08:00 +27°C° 0 mm 2 mps 754 mmHg 71%
09:00 +28°C° 0 mm 3 mps 754 mmHg 67%
10:00 +29°C° 0.4 mm 3 mps 754 mmHg 64%
11:00 +30°C° 0.4 mm 3 mps 754 mmHg 61%
12:00 +31°C° 0.4 mm 3 mps 754 mmHg 58%
13:00 +31°C° 0 mm 2 mps 754 mmHg 56%
14:00 +31°C° 0 mm 2 mps 753 mmHg 53%
15:00 +32°C° 0 mm 2 mps 753 mmHg 51%
16:00 +31°C° 0.1 mm 2 mps 753 mmHg 56%
17:00 +31°C° 0.1 mm 1 mps 753 mmHg 61%
18:00 +30°C° 0.1 mm 1 mps 752 mmHg 66%
19:00 +28°C° 0 mm 2 mps 752 mmHg 70%
20:00 +26°C° 0 mm 2 mps 752 mmHg 74%
21:00 +24°C° 0 mm 3 mps 752 mmHg 78%
22:00 +22°C° 0 mm 3 mps 752 mmHg 82%
23:00 +22°C° 0 mm 3 mps 752 mmHg 86%

25 June, Friday

Time Temperature Precipitation Wind Pressure Humidity
00:00 +21°C° 0 mm 3 mps 752 mmHg 89%
01:00 +21°C° 0 mm 3 mps 752 mmHg 90%
02:00 +21°C° 0 mm 2 mps 751 mmHg 91%
03:00 +21°C° 0 mm 2 mps 751 mmHg 92%
04:00 +23°C° 0 mm 2 mps 751 mmHg 87%
05:00 +24°C° 0 mm 2 mps 751 mmHg 82%
06:00 +25°C° 0 mm 2 mps 751 mmHg 77%
07:00 +27°C° 0 mm 2 mps 751 mmHg 73%
08:00 +28°C° 0 mm 3 mps 751 mmHg 70%
09:00 +29°C° 0 mm 3 mps 751 mmHg 66%
10:00 +30°C° 0 mm 3 mps 751 mmHg 63%
11:00 +30°C° 0 mm 3 mps 751 mmHg 60%
12:00 +31°C° 0 mm 3 mps 751 mmHg 57%
13:00 +33°C° 0 mm 4 mps 751 mmHg 56%
14:00 +33°C° 0 mm 4 mps 750 mmHg 56%
15:00 +33°C° 0 mm 4 mps 750 mmHg 55%
16:00 +32°C° 0 mm 4 mps 750 mmHg 60%
17:00 +30°C° 0 mm 3 mps 750 mmHg 65%
18:00 +30°C° 0 mm 3 mps 749 mmHg 70%
19:00 +28°C° 0 mm 3 mps 749 mmHg 73%
20:00 +27°C° 0 mm 3 mps 749 mmHg 75%
21:00 +26°C° 0 mm 2 mps 749 mmHg 78%
22:00 +26°C° 0 mm 2 mps 749 mmHg 80%
23:00 +25°C° 0 mm 2 mps 749 mmHg 83%
Show more